Weather History for Reidsville, NC

Change the Weather History Date:

Tuesday, January 29, 2013

  Actual Average (KGSO) Record (KGSO)
Temperature  
Mean Temperature 56 °F 40 °F  
Max Temperature 70 °F 49 °F 78 °F (1975)
Min Temperature 43 °F 30 °F -7 °F (1940)
Degree Days  
Heating Degree Days 8 25  
Month to date heating degree days 752  
Since 1 July heating degree days 2166  
Cooling Degree Days 0 0  
Month to date cooling degree days 0  
Year to date cooling degree days 0  
Growing Degree Days 6 (Base 50)    
Moisture  
Dew Point 48 °F    
Average Humidity 80    
Maximum Humidity 100    
Minimum Humidity 45    
Precipitation  
Precipitation 0.00 in 0.09 in 1.00 in (1910)
Month to date precipitation 2.86  
Year to date precipitation 2.86  
Snow  
Snow 0.00 in 0.10 in 7.20 in (1966)
Month to date snowfall 3.2  
Since 1 July snowfall 4.1  
Snow Depth -    
Sea Level Pressure  
Sea Level Pressure 30.14 in    
Wind  
Wind Speed 5 mph (SW)    
Max Wind Speed 14 mph    
Max Gust Speed 17 mph    
Visibility 7 miles    
Events Fog , Rain    
T = Trace of Precipitation, MM = Missing Value Source: NWS Daily Summary

Daily Weather History Graph

Daily Weather History Graph

Search for Another Location

Airport:

Trip Planner

Search our weather history database for the weather conditions in past years. The results will help you decide how hot, cold, wet, or windy it might be!

Date:

Astronomy

Jan. 29, 2013 Rise Set
Actual Time 7:22 AM EST 5:42 PM EST
Civil Twilight 6:55 AM EST 6:09 PM EST
Nautical Twilight 6:24 AM EST 6:40 PM EST
Astronomical Twilight 5:54 AM EST 7:11 PM EST
Moon 8:30 PM EST 8:24 AM EST
Length of Visible Light 11h 14m
Length of Day
10h 19m
Waning Gibbous, 94% of the Moon is Illuminated
Jan 29
Waning Gibbous
Feb 3
Last Quarter
Feb 10
New
Feb 17
First Quarter
Feb 25
Full

Hourly Weather History & Observations

Time (EST) Temp. Windchill Dew Point Humidity Pressure Visibility Wind Dir Wind Speed Gust Speed Precip Events Conditions
12:15 AM 43.3 °F 39.9 °F 41.4 °F 93% 30.21 in 7.0 mi SW 5.8 mph - N/A   Clear
12:35 AM 43.5 °F 39.4 °F 41.5 °F 93% 30.20 in 7.0 mi WSW 6.9 mph - N/A   Clear
12:55 AM 44.2 °F 39.7 °F 42.3 °F 93% 30.20 in 7.0 mi SW 8.1 mph - N/A   Mostly Cloudy
1:15 AM 44.8 °F 40.4 °F 42.8 °F 93% 30.19 in 7.0 mi SW 8.1 mph - N/A   Overcast
1:35 AM 44.8 °F 39.9 °F 42.4 °F 91% 30.20 in 7.0 mi WSW 9.2 mph - N/A   Mostly Cloudy
1:55 AM 45.5 °F 42.5 °F 42.8 °F 90% 30.20 in 7.0 mi WSW 5.8 mph - N/A   Mostly Cloudy
2:15 AM 45.5 °F 41.8 °F 43.0 °F 91% 30.20 in 7.0 mi WSW 6.9 mph 16.1 mph N/A   Mostly Cloudy
2:35 AM 45.5 °F 41.3 °F 43.0 °F 91% 30.20 in 5.0 mi SW 8.1 mph - N/A   Mostly Cloudy
2:55 AM 45.1 °F 42.0 °F 42.8 °F 91% 30.20 in 5.0 mi SW 5.8 mph - N/A   Scattered Clouds
3:15 AM 44.8 °F 41.6 °F 42.8 °F 93% 30.20 in 5.0 mi SW 5.8 mph - N/A   Mostly Cloudy
3:35 AM 44.4 °F 42.0 °F 42.6 °F 93% 30.19 in 5.0 mi SW 4.6 mph - N/A   Scattered Clouds
3:55 AM 44.2 °F 40.3 °F 42.8 °F 95% 30.19 in 5.0 mi SW 6.9 mph - N/A   Scattered Clouds
4:15 AM 44.1 °F 40.1 °F 42.8 °F 95% 30.18 in 4.0 mi SW 6.9 mph - N/A   Mostly Cloudy
4:35 AM 43.7 °F 41.1 °F 42.8 °F 97% 30.19 in 4.0 mi SW 4.6 mph - N/A   Overcast
4:55 AM 43.9 °F 39.9 °F 43.0 °F 97% 30.19 in 4.0 mi SW 6.9 mph - N/A   Overcast
5:15 AM 43.9 °F 40.5 °F 43.2 °F 97% 30.19 in 3.0 mi WSW 5.8 mph - N/A   Overcast
5:35 AM 43.7 °F 41.1 °F 43.2 °F 98% 30.19 in 2.5 mi SW 4.6 mph - N/A   Overcast
5:55 AM 43.7 °F 41.1 °F 43.0 °F 97% 30.20 in 2.5 mi SW 4.6 mph - N/A   Overcast
6:15 AM 43.3 °F 39.9 °F 43.0 °F 99% 30.19 in 2.5 mi SW 5.8 mph - N/A   Overcast
6:35 AM 43.2 °F 40.5 °F 42.8 °F 99% 30.19 in 2.5 mi SW 4.6 mph - N/A   Overcast
6:55 AM 43.2 °F - 42.8 °F 99% 30.19 in 2.5 mi Calm Calm - N/A Rain Rain
7:15 AM 43.0 °F 39.5 °F 42.8 °F 99% 30.19 in 2.5 mi SW 5.8 mph - N/A   Overcast
7:35 AM 43.0 °F 40.3 °F 42.8 °F 99% 30.19 in 2.5 mi WSW 4.6 mph - N/A   Overcast
7:55 AM 43.2 °F 41.5 °F 42.8 °F 99% 30.20 in 1.8 mi SW 3.5 mph - N/A   Overcast
8:15 AM 43.7 °F 40.3 °F 43.2 °F 98% 30.21 in 1.5 mi SW 5.8 mph - N/A   Overcast
8:35 AM 43.7 °F 40.3 °F 43.3 °F 99% 30.21 in 1.0 mi SW 5.8 mph - N/A   Overcast
8:55 AM 43.7 °F 40.3 °F 43.7 °F 100% 30.21 in 0.2 mi SW 5.8 mph - N/A Fog Fog
9:15 AM 43.9 °F 41.3 °F 43.9 °F 100% 30.21 in 0.2 mi WSW 4.6 mph - N/A Fog Fog
9:35 AM 44.4 °F 41.2 °F 44.4 °F 100% 30.21 in 0.8 mi SW 5.8 mph - N/A   Overcast
9:55 AM 45.0 °F 43.5 °F 45.0 °F 100% 30.21 in 1.5 mi SW 3.5 mph - N/A   Overcast
10:15 AM 46.2 °F 43.3 °F 45.7 °F 98% 30.21 in 2.5 mi SW 5.8 mph - N/A   Overcast
10:35 AM 48.2 °F - 46.2 °F 93% 30.21 in 4.0 mi WSW 4.6 mph - N/A   Mostly Cloudy
10:55 AM 51.4 °F - 46.6 °F 83% 30.21 in 5.0 mi SW 5.8 mph - N/A   Haze
11:15 AM 54.5 °F - 47.5 °F 77% 30.21 in 7.0 mi SSW 6.9 mph - N/A   Clear
11:35 AM 56.7 °F - 47.8 °F 72% 30.19 in 10.0 mi SSW 4.6 mph - N/A   Clear
11:55 AM 58.1 °F - 48.2 °F 70% 30.18 in 10.0 mi Calm Calm - N/A   Clear
12:15 PM 61.0 °F - 48.7 °F 64% 30.16 in 10.0 mi SSW 4.6 mph - N/A   Clear
12:35 PM 63.1 °F - 48.2 °F 58% 30.15 in 10.0 mi SW 4.6 mph - N/A   Clear
12:55 PM 65.3 °F - 47.3 °F 52% 30.14 in 10.0 mi SW 6.9 mph - N/A   Clear
1:15 PM 67.3 °F - 46.9 °F 48% 30.14 in 10.0 mi SW 6.9 mph - N/A   Clear
1:35 PM 67.5 °F - 47.1 °F 48% 30.12 in 10.0 mi SW 5.8 mph - N/A   Clear
1:55 PM 68.2 °F - 46.0 °F 45% 30.11 in 10.0 mi SW 8.1 mph - N/A   Clear
2:15 PM 68.7 °F - 46.8 °F 45% 30.10 in 10.0 mi SW 6.9 mph - N/A   Clear
2:35 PM 68.9 °F - 47.8 °F 47% 30.09 in 10.0 mi WSW 8.1 mph - N/A   Clear
2:55 PM 69.6 °F - 48.4 °F 47% 30.09 in 10.0 mi SW 6.9 mph - N/A   Clear
3:15 PM 70.2 °F - 49.5 °F 48% 30.09 in 10.0 mi SW 6.9 mph 17.3 mph N/A   Clear
3:35 PM 70.0 °F - 50.9 °F 51% 30.09 in 10.0 mi SW 13.8 mph 17.3 mph N/A   Clear
3:55 PM 70.3 °F - 52.0 °F 52% 30.09 in 10.0 mi SW 8.1 mph - N/A   Clear
4:15 PM 69.6 °F - 52.9 °F 55% 30.08 in 10.0 mi WSW 4.6 mph - N/A   Clear
4:35 PM 70.2 °F - 53.6 °F 56% 30.07 in 10.0 mi WSW 4.6 mph - N/A   Clear
4:55 PM 69.3 °F - 53.8 °F 58% 30.07 in 10.0 mi Calm Calm - N/A   Clear
5:15 PM 68.0 °F - 54.0 °F 61% 30.06 in 10.0 mi Calm Calm - N/A   Clear
5:35 PM 66.2 °F - 54.3 °F 65% 30.06 in 10.0 mi Calm Calm - N/A   Clear
5:55 PM 63.0 °F - 53.8 °F 72% 30.06 in 10.0 mi Calm Calm - N/A   Scattered Clouds
6:15 PM 61.0 °F - 53.2 °F 76% 30.05 in 10.0 mi Calm Calm - N/A   Scattered Clouds
6:35 PM 57.0 °F - 52.5 °F 85% 30.05 in 10.0 mi Calm Calm - N/A   Clear
6:55 PM 59.4 °F - 53.4 °F 81% 30.04 in 10.0 mi Calm Calm - N/A   Clear
7:15 PM 61.7 °F - 54.3 °F 77% 30.05 in 10.0 mi South 3.5 mph - N/A   Clear
7:35 PM 61.2 °F - 54.1 °F 78% 30.05 in 10.0 mi SSW 4.6 mph - N/A   Clear
7:55 PM 62.1 °F - 54.5 °F 76% 30.05 in 10.0 mi Calm Calm - N/A   Scattered Clouds
8:15 PM 61.3 °F - 54.1 °F 77% 30.06 in 10.0 mi SSW 3.5 mph - N/A   Scattered Clouds
8:35 PM 62.2 °F - 54.5 °F 76% 30.06 in 10.0 mi SSW 3.5 mph - N/A   Scattered Clouds
8:55 PM 61.2 °F - 54.3 °F 78% 30.06 in 10.0 mi Calm Calm - N/A   Clear
9:15 PM 61.9 °F - 54.5 °F 77% 30.06 in 10.0 mi SW 4.6 mph - N/A   Scattered Clouds
9:35 PM 61.5 °F - 54.5 °F 78% 30.06 in 10.0 mi SW 4.6 mph - N/A   Scattered Clouds
9:55 PM 61.0 °F - 54.3 °F 79% 30.07 in 10.0 mi SW 3.5 mph - N/A   Overcast
10:15 PM 61.3 °F - 54.5 °F 78% 30.06 in 10.0 mi South 3.5 mph - N/A   Overcast
10:35 PM 61.2 °F - 54.5 °F 79% 30.05 in 10.0 mi South 3.5 mph - N/A   Scattered Clouds
10:55 PM 60.1 °F - 54.0 °F 80% 30.04 in 10.0 mi Calm Calm - N/A   Mostly Cloudy
11:15 PM 56.5 °F - 53.2 °F 89% 30.04 in 10.0 mi Calm Calm - N/A   Mostly Cloudy
11:35 PM 57.0 °F - 53.6 °F 88% 30.04 in 10.0 mi Calm Calm - N/A   Overcast
11:55 PM 59.7 °F - 54.7 °F 83% 30.03 in 10.0 mi SSW 3.5 mph - N/A   Overcast